EZY534 EGAC-EGGP

Flight info

Callsign EZY534
Flight time 0h 32m
Altitude 19000
Route DUFFY L15 PEPOD Q38 SOSIM L28 PENIL
Aircraft A320/M-SDE2E3FGHIJ1RWXYZ/LB1

Departure

Time 2026-04-26 20:39
Airport George Best Belfast City Airport (EGAC)

Arrival

Time 2026-04-26 21:11
Airport Liverpool John Lennon Airport (EGGP)
Time Latitude Longitude Altitude Speed Heading
2026-04-26 20:12 54.61581 -5.87044 23 ft 0 kts 161°
2026-04-26 20:30 54.61593 -5.87051 -5 ft 4 kts 161°
2026-04-26 20:31 54.61614 -5.87063 33 ft 4 kts 163°
2026-04-26 20:31 54.61640 -5.87072 23 ft 4 kts 183°
2026-04-26 20:31 54.61666 -5.87061 24 ft 4 kts 211°
2026-04-26 20:31 54.61675 -5.87051 25 ft 1 kts 215°
2026-04-26 20:34 54.61672 -5.87054 25 ft 1 kts 215°
2026-04-26 20:34 54.61669 -5.87058 24 ft 1 kts 215°
2026-04-26 20:34 54.61650 -5.87082 25 ft 6 kts 215°
2026-04-26 20:34 54.61608 -5.87131 21 ft 9 kts 215°
2026-04-26 20:35 54.61554 -5.87197 21 ft 9 kts 215°
2026-04-26 20:35 54.61504 -5.87257 21 ft 8 kts 215°
2026-04-26 20:35 54.61459 -5.87311 21 ft 7 kts 214°
2026-04-26 20:35 54.61421 -5.87361 21 ft 6 kts 224°
2026-04-26 20:36 54.61396 -5.87421 21 ft 8 kts 234°
2026-04-26 20:36 54.61340 -5.87496 20 ft 11 kts 213°
2026-04-26 20:36 54.61272 -5.87575 18 ft 12 kts 215°
2026-04-26 20:36 54.61201 -5.87661 16 ft 13 kts 215°
2026-04-26 20:37 54.61136 -5.87741 17 ft 10 kts 216°
2026-04-26 20:37 54.61092 -5.87803 19 ft 7 kts 233°
2026-04-26 20:37 54.61082 -5.87890 18 ft 8 kts 272°
2026-04-26 20:37 54.61109 -5.87969 18 ft 8 kts 302°
2026-04-26 20:38 54.61156 -5.88025 18 ft 13 kts 349°
2026-04-26 20:38 54.61264 -5.87908 15 ft 31 kts 38°
2026-04-26 20:38 54.61671 -5.87419 18 ft 108 kts 35°
2026-04-26 20:38 54.62439 -5.86495 243 ft 146 kts 35°
2026-04-26 20:39 54.63257 -5.85489 1034 ft 145 kts 36°
2026-04-26 20:39 54.63798 -5.84810 1492 ft 149 kts 34°
2026-04-26 20:39 54.65016 -5.83226 2013 ft 179 kts 35°
2026-04-26 20:39 54.66063 -5.81826 2357 ft 203 kts 36°
2026-04-26 20:40 54.67248 -5.80240 2798 ft 228 kts 36°
2026-04-26 20:40 54.68556 -5.78457 3303 ft 251 kts 40°
2026-04-26 20:40 54.69570 -5.75908 4077 ft 266 kts 69°
2026-04-26 20:40 54.69745 -5.72697 4937 ft 276 kts 101°
2026-04-26 20:41 54.68923 -5.69720 5798 ft 279 kts 135°
2026-04-26 20:41 54.67332 -5.67908 6701 ft 276 kts 166°
2026-04-26 20:41 54.65451 -5.67276 7583 ft 276 kts 174°
2026-04-26 20:41 54.63538 -5.66766 8448 ft 281 kts 174°
2026-04-26 20:42 54.61587 -5.66261 9295 ft 286 kts 174°
2026-04-26 20:42 54.59601 -5.65742 10130 ft 292 kts 174°
2026-04-26 20:42 54.57556 -5.65198 10656 ft 308 kts 173°
2026-04-26 20:42 54.55360 -5.64609 10988 ft 329 kts 173°
2026-04-26 20:43 54.53064 -5.63985 11659 ft 336 kts 173°
2026-04-26 20:43 54.50750 -5.63349 12436 ft 340 kts 173°
2026-04-26 20:43 54.48398 -5.62702 13175 ft 346 kts 173°
2026-04-26 20:43 54.45946 -5.62034 13343 ft 367 kts 173°
2026-04-26 20:44 54.43384 -5.61336 13876 ft 376 kts 173°
2026-04-26 20:44 54.40780 -5.60626 14509 ft 381 kts 173°
2026-04-26 20:44 54.38149 -5.59909 15122 ft 385 kts 173°
2026-04-26 20:44 54.35492 -5.59188 15714 ft 389 kts 173°
2026-04-26 20:45 54.32801 -5.58453 16299 ft 394 kts 171°
2026-04-26 20:45 54.30144 -5.57206 16849 ft 400 kts 160°
2026-04-26 20:45 54.27630 -5.55057 17423 ft 407 kts 148°
2026-04-26 20:45 54.25388 -5.52072 17950 ft 412 kts 137°
2026-04-26 20:46 54.23504 -5.48343 18508 ft 417 kts 126°
2026-04-26 20:46 54.21806 -5.44301 18991 ft 421 kts 126°
2026-04-26 20:46 54.20083 -5.40226 19238 ft 423 kts 126°
2026-04-26 20:46 54.18342 -5.36129 19301 ft 433 kts 126°
2026-04-26 20:47 54.16538 -5.31890 19303 ft 449 kts 126°
2026-04-26 20:47 54.15314 -5.29008 19297 ft 455 kts 126°
2026-04-26 20:47 54.12825 -5.23150 19301 ft 457 kts 126°
2026-04-26 20:47 54.10962 -5.18777 19300 ft 456 kts 126°
2026-04-26 20:48 54.09096 -5.14406 19297 ft 456 kts 126°
2026-04-26 20:48 54.07227 -5.10043 19298 ft 456 kts 126°
2026-04-26 20:48 54.05359 -5.05689 19298 ft 455 kts 126°
2026-04-26 20:48 54.03490 -5.01343 19299 ft 456 kts 126°
2026-04-26 20:49 54.01615 -4.96994 19303 ft 456 kts 126°
2026-04-26 20:49 53.99741 -4.92653 19301 ft 456 kts 126°
2026-04-26 20:49 53.97868 -4.88318 19302 ft 456 kts 126°
2026-04-26 20:49 53.95989 -4.83975 19302 ft 455 kts 126°
2026-04-26 20:50 53.94117 -4.79648 19301 ft 455 kts 126°
2026-04-26 20:50 53.92240 -4.75317 19301 ft 455 kts 126°
2026-04-26 20:50 53.90365 -4.70998 19303 ft 455 kts 126°
2026-04-26 20:50 53.88484 -4.66675 19306 ft 454 kts 126°
2026-04-26 20:51 53.86607 -4.62377 19308 ft 454 kts 126°
2026-04-26 20:51 53.84723 -4.58084 19300 ft 452 kts 126°
2026-04-26 20:51 53.82874 -4.53862 19071 ft 442 kts 125°
2026-04-26 20:51 53.81294 -4.49432 18833 ft 438 kts 116°
2026-04-26 20:52 53.80114 -4.44696 18594 ft 436 kts 110°
2026-04-26 20:52 53.79016 -4.39930 18324 ft 434 kts 110°
2026-04-26 20:52 53.77914 -4.35179 18064 ft 433 kts 111°
2026-04-26 20:52 53.76813 -4.30456 17799 ft 431 kts 111°
2026-04-26 20:53 53.75714 -4.25763 17531 ft 430 kts 111°
2026-04-26 20:53 53.74614 -4.21079 17241 ft 426 kts 111°
2026-04-26 20:53 53.73530 -4.16468 16646 ft 420 kts 111°
2026-04-26 20:53 53.72456 -4.11918 16074 ft 414 kts 111°
2026-04-26 20:54 53.71392 -4.07422 15510 ft 409 kts 111°
2026-04-26 20:54 53.70343 -4.03001 14971 ft 404 kts 111°
2026-04-26 20:54 53.69302 -3.98624 14428 ft 400 kts 112°
2026-04-26 20:54 53.68271 -3.94291 13853 ft 396 kts 112°
2026-04-26 20:55 53.67251 -3.90002 13231 ft 392 kts 112°
2026-04-26 20:55 53.66242 -3.85768 12663 ft 387 kts 112°
2026-04-26 20:55 53.65240 -3.81564 12039 ft 384 kts 112°
2026-04-26 20:55 53.64248 -3.77410 11479 ft 380 kts 112°
2026-04-26 20:56 53.63282 -3.73374 11335 ft 363 kts 112°
2026-04-26 20:56 53.62341 -3.69527 11209 ft 347 kts 116°
2026-04-26 20:56 53.61151 -3.66090 11083 ft 332 kts 127°
2026-04-26 20:56 53.59670 -3.63213 10962 ft 319 kts 137°
2026-04-26 20:57 53.58098 -3.60686 10830 ft 307 kts 137°
2026-04-26 20:57 53.56579 -3.58231 10662 ft 299 kts 137°
2026-04-26 20:57 53.55099 -3.55831 10524 ft 294 kts 137°
2026-04-26 20:57 53.53628 -3.53447 10451 ft 294 kts 137°
2026-04-26 20:58 53.52155 -3.51068 10324 ft 293 kts 137°
2026-04-26 20:58 53.50682 -3.48691 9933 ft 297 kts 137°
2026-04-26 20:58 53.49189 -3.46274 9557 ft 295 kts 136°
2026-04-26 20:58 53.47936 -3.43587 8998 ft 291 kts 121°
2026-04-26 20:59 53.47037 -3.40559 8295 ft 289 kts 116°
2026-04-26 20:59 53.46170 -3.37529 7753 ft 283 kts 117°
2026-04-26 20:59 53.45617 -3.35602 7601 ft 270 kts 117°
2026-04-26 20:59 53.44575 -3.31920 7437 ft 254 kts 112°
2026-04-26 21:00 53.44296 -3.30047 7362 ft 248 kts 98°
2026-04-26 21:00 53.44115 -3.27176 7284 ft 248 kts 95°
2026-04-26 21:00 53.43979 -3.24280 7289 ft 250 kts 95°
2026-04-26 21:00 53.43848 -3.21373 7284 ft 250 kts 95°
2026-04-26 21:01 53.43718 -3.18483 7012 ft 248 kts 95°
2026-04-26 21:01 53.43588 -3.15601 6682 ft 247 kts 95°
2026-04-26 21:01 53.43458 -3.12748 6353 ft 245 kts 95°
2026-04-26 21:01 53.43332 -3.09906 6011 ft 244 kts 95°
2026-04-26 21:02 53.43209 -3.07077 5680 ft 242 kts 95°
2026-04-26 21:02 53.43087 -3.04230 5358 ft 240 kts 95°
2026-04-26 21:02 53.42969 -3.01447 5037 ft 239 kts 95°
2026-04-26 21:02 53.42855 -2.98680 4699 ft 237 kts 95°
2026-04-26 21:03 53.42741 -2.95920 4376 ft 237 kts 95°
2026-04-26 21:03 53.42627 -2.93169 4042 ft 236 kts 95°
2026-04-26 21:03 53.42508 -2.90432 3716 ft 235 kts 95°
2026-04-26 21:03 53.42386 -2.87707 3385 ft 234 kts 95°
2026-04-26 21:04 53.42261 -2.84982 3071 ft 233 kts 95°
2026-04-26 21:04 53.42132 -2.82247 2912 ft 233 kts 95°
2026-04-26 21:04 53.42003 -2.79567 2775 ft 234 kts 95°
2026-04-26 21:04 53.41868 -2.76822 2646 ft 233 kts 95°
2026-04-26 21:05 53.41734 -2.74165 2545 ft 224 kts 95°
2026-04-26 21:05 53.41603 -2.71622 2489 ft 213 kts 95°
2026-04-26 21:05 53.41478 -2.69227 2491 ft 200 kts 95°
2026-04-26 21:05 53.41359 -2.66938 2493 ft 195 kts 95°
2026-04-26 21:06 53.41241 -2.64686 2505 ft 193 kts 95°
2026-04-26 21:06 53.41122 -2.62413 2498 ft 193 kts 96°
2026-04-26 21:06 53.40695 -2.60322 2500 ft 190 kts 131°
2026-04-26 21:06 53.39614 -2.59164 2506 ft 187 kts 169°
2026-04-26 21:07 53.38330 -2.58882 2511 ft 187 kts 178°
2026-04-26 21:07 53.37034 -2.58786 2508 ft 187 kts 180°
2026-04-26 21:07 53.35781 -2.59154 2504 ft 183 kts 209°
2026-04-26 21:07 53.34818 -2.60513 2503 ft 182 kts 237°
2026-04-26 21:08 53.34370 -2.62454 2495 ft 180 kts 263°
2026-04-26 21:08 53.34270 -2.64550 2306 ft 180 kts 266°
2026-04-26 21:08 53.34184 -2.66626 2074 ft 177 kts 266°
2026-04-26 21:08 53.34097 -2.68654 1831 ft 171 kts 266°
2026-04-26 21:09 53.34011 -2.70592 1624 ft 162 kts 266°
2026-04-26 21:09 53.33928 -2.72456 1396 ft 159 kts 267°
2026-04-26 21:09 53.33848 -2.74243 1184 ft 149 kts 267°
2026-04-26 21:09 53.33772 -2.75943 991 ft 145 kts 268°
2026-04-26 21:10 53.33697 -2.77611 794 ft 143 kts 267°
2026-04-26 21:10 53.33622 -2.79266 613 ft 143 kts 267°
2026-04-26 21:10 53.33548 -2.80921 428 ft 142 kts 266°
2026-04-26 21:10 53.33472 -2.82559 220 ft 140 kts 267°
2026-04-26 21:11 53.33403 -2.84160 79 ft 131 kts 266°
2026-04-26 21:11 53.33352 -2.85278 85 ft 53 kts 266°
2026-04-26 21:11 53.33324 -2.85843 73 ft 46 kts 265°
2026-04-26 21:11 53.33304 -2.86318 67 ft 24 kts 272°
2026-04-26 21:12 53.33395 -2.86424 83 ft 13 kts 351°
2026-04-26 21:12 53.33457 -2.86399 87 ft 8 kts 51°
2026-04-26 21:12 53.33487 -2.86308 87 ft 11 kts 13°
2026-04-26 21:12 53.33569 -2.86283 86 ft 12 kts 20°
2026-04-26 21:13 53.33588 -2.86174 85 ft 10 kts 85°
2026-04-26 21:13 53.33592 -2.86068 85 ft 9 kts 86°
2026-04-26 21:13 53.33595 -2.85972 88 ft 9 kts 89°
2026-04-26 21:13 53.33599 -2.85833 90 ft 15 kts 86°
2026-04-26 21:14 53.33608 -2.85641 85 ft 16 kts 85°
2026-04-26 21:14 53.33622 -2.85464 87 ft 14 kts 64°
2026-04-26 21:14 53.33660 -2.85438 89 ft 3 kts 354°
2026-04-26 21:14 53.33669 -2.85440 86 ft 1 kts 355°
2026-04-26 21:15 53.33670 -2.85440 86 ft 0 kts 355°